Regional Weather Roundup
Issued by NWS

Home | Current Version | Previous Version | Text Only | Print | Product List | Glossary Off
Versions: 1 2 3 4 5 6 7 8 9 10 11 12 13 14 15 16 17 18 19 20 21 22 23 24 25 26 27 28 29 30 31 32 33 34 35 36 37 38 39 40 41 42 43 44 45 46 47 48 49 50

000
ASUS45 KTFX 210119
RWRMT
MONTANA HOURLY WEATHER ROUNDUP
NATIONAL WEATHER SERVICE GREAT FALLS MT
719 PM MDT SUN APR 20 2014

NOTE: "FAIR" INDICATES FEW OR NO CLOUDS BELOW 12000 FEET WITH NO
SIGNIFICANT WEATHER AND/OR OBSTRUCTIONS TO VISIBILITY.

* THESE STATIONS ARE NOT UNDER NWS QUALITY CONTROL. THEY DO NOT
   REPORT WEATHER SUCH AS PRECIPITATION OR FOG.

MTZ001>007-043-210200-
WEST OF THE DIVIDE
CITY           SKY/WX    TMP DP  RH WIND       PRES   REMARKS
KALISPELL      PTCLDY    54  21  27 SW10      30.19S
MISSOULA       PTCLDY    57  18  22 NW13      30.22S
BUTTE          PTCLDY    52   9  17 NW13      30.20R
MULLAN PASS    PTCLDY    37  19  48 VRB7      30.24S WCI  32
* ESSEX        N/A       49  21  33 NE1G7      N/A
* LINCOLN      N/A       53  14  21 SW8G21     N/A
* LOOKOUT PASS N/A       45  21  38 SE7        N/A
* POLSON       N/A       54  18  24 NW3G8      N/A
* SEELEY LAKE  N/A       54  19  25 NW8G15     N/A
* THOMP F APT  PTCLDY    60  15  17 S7G18      N/A
* YAAK HILL    N/A       57  22  26 SE3        N/A
$$

MTZ008-052>055-210200-
SOUTHWEST MONTANA
CITY           SKY/WX    TMP DP  RH WIND       PRES   REMARKS
BOZEMAN        PTCLDY    59  12  15 NW12      30.14R
DILLON         MOCLDY    55  10  16 W5        30.16S
W YELLOWSTONE  N/A       51  25  36 SW4G10     N/A
* THREE FORKS  PTCLDY    63  12  13 W13        N/A
* BOULDER HILL N/A       51  15  24 S9         N/A
* MONIDA PASS  N/A       54   9  16 NW7        N/A
* RAYNOLDS PAS N/A       53  17  24 NE2        N/A
* WHITEHALL    N/A       62   9  12 NW13G23    N/A
* WISE RIVER   N/A       52  12  20 NW12G20    N/A
$$

MTZ009>010-012-014-046-048-049-054-210200-
EAST SLOPES AND CENTRAL MONTANA
CITY           SKY/WX    TMP DP  RH WIND       PRES   REMARKS
CUT BANK       PTCLDY    52  19  27 W22       30.12S
GREAT FALLS    PTCLDY    55  14  20 W15G22    30.13R
HELENA         PTCLDY    59  12  15 W12       30.16R
MALMSTROM AFB  PTCLDY    57  12  17 W14       30.11R
* CONRAD       PTCLDY    55  19  24 W20        N/A
* DEARBORN     N/A       57  14  18 S16G22     N/A
* MONARCH      N/A       49  10  20 W19G27     N/A
* PENDROY      N/A       50  17  27 W16        N/A
* ROGERS PASS  N/A       46  12  25 SE11G25    N/A
* SAINT MARY   N/A       48  20  33 SW9G18     N/A
* SWEET GRASS  N/A       54  16  22 NW17G24    N/A
* WHITE SULPH  N/A       53   8  16 NW15G26    N/A
$$

MTZ011-013-016-021-035-040-045-047-050-051-210200-
NORTH CENTRAL MONTANA
CITY           SKY/WX    TMP DP  RH WIND       PRES   REMARKS
HAVRE          MOCLDY    61  19  20 NW16      30.06R
LEWISTOWN      CLEAR     54  14  20 NW21      30.12R
* CHINOOK      CLEAR     61  25  25 W14       30.05R
* FORT BENTON  PTCLDY    59  18  20 W13       30.12R
* MALTA APT    CLEAR     63  27  26 W13G18    30.01R
* CHESTER      N/A       58  16  19 W12G21     N/A
* DENTON       N/A       58  16  19 W18G26     N/A
* GEYSER       N/A       54  14  20 W21G26     N/A
* JUDITH GAP   N/A       53  14  21 N16        N/A
* LOMA         N/A       60  18  19 W13G22     N/A
$$

MTZ017>020-022>027-061-062-210200-
NORTHEAST MONTANA
CITY           SKY/WX    TMP DP  RH WIND       PRES   REMARKS
GLASGOW        CLEAR     61  25  25 W18G29    30.02R
GLENDIVE       CLEAR     61  23  23 NW14G22   30.04R
JORDAN         CLEAR     61  23  23 NW13      30.05R
SIDNEY         CLEAR     61  27  27 W12G17    30.01R
WOLF POINT     CLEAR     63  23  22 W24G33    30.00R
* BEAVER HILL  N/A       61  20  20 W22G29     N/A
* CIRCLE       N/A       61  29  30 W15        N/A
* LINDSAY DVD  N/A       58  21  24 W19G30     N/A
* NAVAJO       N/A       56  28  34 NW28G34    N/A
* SACO         N/A       61  24  24 W17G27     N/A
$$

MTZ028>042-056>058-210200-
SOUTHCENTRAL AND SOUTHEAST MONTANA
CITY           SKY/WX    TMP DP  RH WIND       PRES   REMARKS
BAKER          CLEAR     61  16  17 NW22G32   30.04R
BILLINGS       FAIR      61  14  16 N16       30.10R
LIVINGSTON     CLEAR     61  10  13 W21       30.10S
MILES CITY     CLEAR     63  14  15 NW20G28   30.05S
* LAUREL APT   CLEAR     63  19  18 NW15       N/A
* ROUNDUP APT  CLEAR     61  14  16 NW7        N/A
* HYSHAM       N/A       61  14  16 VRB5G11    N/A
* LAME DEER    N/A       58  11  15 NW11G19    N/A
* REED POINT   N/A       63  20  19 NW16G24    N/A
* ROSCOE HILL  N/A       58  10  15 NW8        N/A
$$

REGIONAL REPORTS...DAKOTAS
CITY           SKY/WX    TMP DP  RH WIND       PRES   REMARKS
WILLISTON      CLEAR     61  28  29 W18G28    29.96R
DICKINSON      CLEAR     61  21  21 NW21      29.98R
CROSBY         CLEAR     55  30  39 W29G36    29.94R
TIOGA          CLEAR     57  27  32 W15G23    29.96R
WATFORD CITY   CLEAR     59  28  31 W17G24    29.96R
BISMARCK       PTCLDY    66  27  23 NW13G26   29.93R
GRAND FORKS    CLOUDY    66  43  43 SE9       29.82F
FARGO          CLOUDY    70  36  29 SE10      29.87F
BUFFALO SD     CLEAR     63  19  18 NW21G29   29.98R
RAPID CITY     PTCLDY    63  27  26 N20G31    30.02R
$$

REGIONAL REPORTS...WYOMING/IDAHO/WASHINGTON
CITY           SKY/WX    TMP DP  RH WIND       PRES   REMARKS
GILLETTE       CLEAR     59  25  27 N14       30.10R
SHERIDAN       CLEAR     61  27  27 NW13      30.10R
CODY           CLEAR     57  21  25 N13       30.12R
YELLOWSTONE LA PTCLDY    45  21  38 CALM      30.25R
SALMON         PTCLDY    59  18  20 CALM      30.16R
MULLAN PASS    PTCLDY    37  19  48 VRB7      30.24S WCI  32
SAND POINT     CLOUDY    55  30  39 CALM      30.23S
SPOKANE        CLOUDY    54  27  35 S5        30.22F
$$

REGIONAL REPORTS...ALBERTA
CITY           SKY/WX    TMP DP  RH WIND       PRES   REMARKS
CALGARY        PTCLDY    54  16  22 W16G24    30.04R
LETHBRIDGE     MOCLDY    54  23  30 W22G37    30.08R
MEDICINE HAT   MOCLDY    61  25  25 NW15      30.03R
EDMONTON       FAIR      55  27  34 NW6       29.99S
WATERTON GATE  N/A       46  18  33 SW20G30    N/A
CARDSTON       N/A       50  21  32 W15G22     N/A
MILK RIVER     N/A       55  18  23 W20        N/A
$$

REGIONAL REPORTS...SASKATCHEWAN
CITY           SKY/WX    TMP DP  RH WIND       PRES   REMARKS
SWIFT CURRENT  CLEAR     50  36  59 NW22G32   29.97R
REGINA         MOCLDY    46  43  89 W16G24    29.89R
VAL MARIE      N/A       57  25  29 NW23G30    N/A
ASSINIBOIA     N/A       52  32  47 NW31G43    N/A
CORONACH       N/A       55  28  35 W24G35     N/A

$$




USA.gov is the U.S. government's official web portal to all federal, state and local government web resources and services.